Aeroporto :







RITROVATECI SU...

 
LOGIN :

Iscrizione | Disclaimer

   EN    FR    IT 

 









Sommario :    VFR   VFR Marginale   IFR   IFR Intensivo   IFR Molto Intensivo
Visibilità : 
Base nubi : 
>= 8 km
>= 3000ft
5 / 8 km
1000 / 3000 ft
1500m / 5 km
500 / 1000 ft
800 / 1500m
200 / 500 ft
< 800m
< 200 ft
Simboli :   Temporali  Nebbia  Neve Forte  Precipitazioni Forti  Vento > 20 kt






- Altitudine del aeroporto : 95 ft
- Codice IATA : GEO


SYCJ - Cheddi Jagan Int.

ULTIMO METAR :
  • 200400Z 20004KT 9999 FEW015 24/23 Q1012 NOSIG

METARs OBSOLETI :
  • 200300Z VRB02KT 9999 FEW015 24/23 Q1013 NOSIG
  • 200200Z VRB02KT 9999 FEW015 SCT090 25/24 Q1013 NOSIG

TAF TAF SYCJ
Valido dal 20 a 00 ore il 21 a 00 ore UTC


192300Z 2000/2024 VRB04KT 9999 SCT015 BKN036
PROB30
TEMPO 2004/2008 0600 FG BKN004
BECMG 2008/2010 07006KT 5000 TSRA FEW013CB BKN014 BKN032
BECMG 2016/2018 06010KT 9999 SCT018 SCT038
FIR SYGC / Sudamerica



MetMap, La meteo Aeronautica in un colpo d'occhio ! - Copyright ORBIFLY Dicembre 2007 - Disclaimer

ORBIFLY MET'MAP TEAM :

Programmazione e sviluppo : Alexandra Zaïnal
Concezione : Baudouin d'Aumeries
Aiuto per la programmazione : Marc-Olivier Méhu
Supporto tecnico e logistico : Manuel Goepfert
Aiuto per la traduzione : Arnaldo La Scala

Contatto : metmap@orbifly.com




FONTI E CREDITI :

   NOAA